Regional Weather Roundup
Issued by NWS

Home | Current Version | Previous Version | Graphics & Text | Print | Product List | Glossary On
Versions: 1 2 3 4 5 6 7 8 9 10 11 12 13 14 15 16 17 18 19 20 21 22 23 24 25 26 27 28 29 30 31 32 33 34 35 36 37 38 39 40 41 42 43 44 45 46 47 48 49 50
000
ASUS45 KSLC 270910
RWRUT

UTAH REGIONAL WEATHER ROUNDUP
NATIONAL WEATHER SERVICE SALT LAKE CITY UT
300 AM MDT SUN JUL 27 2014

UTZ001>011-023>025-271000-

NORTHERN UTAH

CITY           SKY/WX    TMP DP  RH WIND       PRES   REMARKS
HILL AFB       CLEAR     73  34  23 E17       30.17S
LOGAN          CLEAR     56  44  64 CALM      30.20R
OGDEN          CLEAR     71  35  26 S7        30.14F
PROVO AIRPORT  MOCLDY    70  48  46 SE6       30.17S
SALT LAKE CITY PTCLDY    72  39  30 CALM      30.12F
VERNAL         PTCLDY    76  29  17 N8        30.21F
WENDOVER       CLOUDY    75  28  17 CALM      30.14F
HEBER CITY     PTCLDY    61  46  59 CALM      30.25S
WEST JORDAN    CLEAR     72  43  35 CALM      30.16S

$$

UTZ012>022-026-027-271000-

SOUTHERN UTAH

CITY           SKY/WX    TMP DP  RH WIND       PRES   REMARKS
BRYCE CANYON   PTCLDY    50  45  83 W5        30.40S
CEDAR CITY     PTCLDY    62  47  57 NE3       30.23S
MILFORD        PTCLDY    66  51  58 S7        30.19R
MOAB/CYNLANDS  CLEAR     79  42  26 W5        30.11R
PRICE          CLOUDY    76  41  28 VRB3      30.25S
ST GEORGE      MOSUNNY   79  55  44 E8        30.04S
KANAB            N/A     64  50  59 NE5       30.22S

$$

REGIONAL REPORTS     COLORADO/ARIZONA

CITY           SKY/WX    TMP DP  RH WIND       PRES   REMARKS
CRAIG, CO      PTCLDY    49  49 100 CALM      30.33R
GRAND JUNCTION PTCLDY    68  52  56 CALM      30.18S
RIFLE          CLOUDY    62  55  77 CALM      30.28S
MONTROSE       CLEAR     66  49  54 CALM      30.27S
CORTEZ         CLEAR     61  47  59 NE5       30.24R
PAGE, AZ       CLEAR     81  49  32 W3        30.11S
GRAND CANYON   MOCLDY    61  45  55 NE5       30.33S
KINGMAN        MOCLDY    75  57  53 CALM      30.06S
FLAGSTAFF      CLOUDY    60  56  86 CALM      30.41F

$$

REGIONAL REPORTS    NEVADA/IDAHO/WYOMING

CITY           SKY/WX    TMP DP  RH WIND       PRES   REMARKS
LAS VEGAS, NV  PTCLDY    91  52  26 S10       29.90S
ELY            MOCLDY    61  41  47 S7        30.29F
ELKO           PTCLDY    58  32  37 SW3       30.18R
POCATELLO, ID  CLEAR     53  37  54 NW8       30.20R
BURLEY         CLOUDY    59  46  62 CALM      30.15S
EVANSTON, WY   CLEAR     60  32  34 NE5       30.39S
ROCK SPRINGS   CLEAR     60  26  27 NE9       30.37S

$$


USA.gov is the U.S. government's official web portal to all federal, state and local government web resources and services.